GW2584 Weather Reports


time (UTC)temp
F
wind
direction
speed
knots
gust
knots
rain 1hr
in
rain 24hr
in
rain mn
in
humidity
%
barometer
mb
20260901210123 79 79 4.3 10.4 0.00 0.03 0.01 23 1022.9
20260901204608 80 218 2.6 10.4 0.00 0.03 0.01 22 1023.1
20260901203106 80 129 1.7 6.1 0.00 0.03 0.01 24 1023.4
20260901201603 79 224 2.6 8.7 0.00 0.03 0.01 26 1023.2
20260901200115 76 210 2.6 13.9 0.00 0.03 0.01 28 1023.3
20260901194605 77 354 3.5 11.3 0.00 0.03 0.01 27 1023.3
20260901193106 79 239 3.5 9.6 0.00 0.03 0.01 26 1023.4
20260901191602 78 269 2.6 14.8 0.00 0.03 0.01 26 1023.5
20260901190109 77 226 4.3 8.7 0.00 0.03 0.01 28 1023.3
20260901184608 77 231 2.6 12.2 0.00 0.03 0.01 29 1023.8
20260901183110 76 243 3.5 12.2 0.00 0.03 0.01 30 1023.8
20260901181603 76 201 5.2 15.6 0.00 0.03 0.01 29 1023.9
20260901180104 76 153 5.2 11.3 0.00 0.03 0.01 29 1024.0
20260901174603 74 217 0.9 11.3 0.00 0.03 0.01 32 1024.0
20260901173102 74 235 3.5 13.9 0.00 0.03 0.01 32 1024.2
20260901171606 73 200 4.3 11.3 0.00 0.03 0.01 33 1024.4
20260901170108 72 231 5.2 13.0 0.00 0.03 0.01 33 1024.5
20260901164612 72 222 3.5 10.4 0.00 0.03 0.01 34 1024.4
20260901163110 72 202 3.5 13.9 0.00 0.03 0.01 36 1024.1
20260901161626 71 216 4.3 14.8 0.00 0.03 0.01 39 1023.9
20260901160103 69 210 5.2 13.0 0.00 0.03 0.01 42 1024.1
20260901154619 68 147 4.3 11.3 0.00 0.03 0.01 44 1024.4
20260901153110 66 243 3.5 10.4 0.00 0.03 0.01 48 1024.6
20260901151612 65 234 3.5 7.8 0.00 0.03 0.01 49 1024.6
20260901150119 64 210 2.6 7.8 0.00 0.03 0.01 52 1024.6
20260901144609 63 166 1.7 10.4 0.00 0.03 0.01 53 1024.5
20260901143108 63 121 2.6 8.7 0.00 0.03 0.01 53 1024.4
20260901141605 63 216 1.7 8.7 0.00 0.03 0.01 52 1024.3
20260901134601 61 229 1.7 6.1 0.00 0.03 0.01 58 1024.2
20260901133106 61 283 0.9 9.6 0.00 0.03 0.01 58 1023.9
20260901131604 61 229 3.5 8.7 0.00 0.03 0.01 59 1023.7
20260901130105 60 180 4.3 10.4 0.00 0.03 0.01 60 1023.5
20260901124606 60 127 2.6 6.1 0.00 0.03 0.01 62 1023.3
20260901123105 58 184 1.7 6.1 0.00 0.03 0.01 65 1022.8
20260901121613 58 0 0.0 2.6 0.00 0.03 0.01 68 1022.7
20260901120114 57 0 0.0 1.7 0.00 0.03 0.01 71 1022.8
20260901114609 57 217 1.7 2.6 0.00 0.03 0.01 71 1022.8
20260901113104 57 0 0.0 1.7 0.00 0.03 0.01 72 1022.8
20260901111606 57 0 0.9 1.7 0.00 0.03 0.01 72 1022.8
20260901104603 58 222 0.9 3.5 0.00 0.03 0.01 72 1023.0
20260901103107 57 239 0.9 2.6 0.00 0.03 0.01 74 1022.9
20260901101604 58 0 0.0 1.7 0.00 0.03 0.01 73 1023.2
20260901100106 58 220 0.9 3.5 0.00 0.03 0.01 72 1023.5
20260901094604 58 0 0.0 1.7 0.00 0.03 0.01 74 1023.6
20260901093105 58 0 0.0 2.6 0.00 0.03 0.01 73 1023.8
20260901091615 58 0 0.0 0.9 0.00 0.03 0.01 73 1024.0
20260901090107 57 0 0.0 1.7 0.00 0.03 0.01 74 1024.0
20260901084609 57 0 0.0 0.9 0.00 0.03 0.01 74 1024.0
20260901083107 57 0 0.0 0.0 0.00 0.03 0.01 75 1024.1
20260901081608 57 0 0.0 0.0 0.00 0.03 0.01 75 1024.6
20260901080108 58 0 0.0 0.9 0.00 0.03 0.01 74 1024.6
20260901074605 58 0 0.0 0.9 0.00 0.03 0.01 73 1024.8
20260901073110 58 0 0.0 0.9 0.00 0.03 0.01 74 1025.0
20260901071607 59 0 0.0 0.9 0.00 0.03 0.01 73 1024.8
20260901070109 58 243 0.0 1.7 0.01 0.03 0.01 73 1024.9
20260901064614 58 0 0.0 0.9 0.01 0.03 0.01 75 1024.8
20260901063107 59 0 0.0 0.9 0.01 0.03 0.01 73 1024.9
20260901061612 59 287 0.0 4.3 0.01 0.03 0.01 71 1024.6
20260901060107 59 221 0.9 4.3 0.00 0.02 0.00 69 1024.9
20260901054616 59 0 0.0 2.6 0.00 0.02 0.02 70 1024.7
20260901053120 58 0 0.0 0.0 0.00 0.02 0.02 74 1024.8
20260901051621 59 0 0.0 0.0 0.00 0.02 0.02 73 1025.1
20260901050107 58 0 0.0 0.9 0.00 0.02 0.02 75 1025.3
20260901044606 58 0 0.0 0.0 0.00 0.02 0.02 74 1025.4
20260901043102 58 0 0.0 0.0 0.00 0.02 0.02 74 1025.2
20260901041605 58 0 0.0 2.6 0.00 0.02 0.02 74 1025.1
20260901040105 57 229 0.0 1.7 0.01 0.02 0.02 78 1024.9
20260901034602 58 0 0.0 6.1 0.01 0.02 0.02 75 1024.8
20260901033102 58 243 0.0 2.6 0.02 0.02 0.02 76 1025.9
20260901031603 58 252 0.0 7.0 0.02 0.02 0.02 79 1026.2
20260901030100 59 203 3.5 10.4 0.01 0.01 0.01 75 1026.4
20260901024611 59 195 3.5 10.4 0.01 0.01 0.01 73 1026.4
20260901023101 62 255 5.2 16.5 0.00 0.00 0.00 68 1026.1
20260901021605 64 212 2.6 7.8 0.00 0.00 0.00 57 1024.9
20260901014606 63 186 1.7 7.0 0.00 0.00 0.00 58 1024.5
20260901013118 63 252 1.7 6.1 0.00 0.00 0.00 60 1024.5
20260901011608 62 270 0.0 4.3 0.00 0.00 0.00 62 1024.8
20260901010124 62 224 3.5 7.8 0.00 0.00 0.00 63 1024.9
20260901004615 61 184 3.5 10.4 0.00 0.00 0.00 66 1025.2
20260901003102 62 229 5.2 12.2 0.00 0.00 0.00 63 1025.1
20260901001605 65 187 2.6 7.8 0.00 0.00 0.00 58 1025.1
20260901000108 69 202 2.6 7.0 0.00 0.00 0.00 39 1024.8
20260831234633 70 198 0.9 4.3 0.00 0.00 0.00 37 1024.4
20260831233104 71 80 0.9 3.5 0.00 0.00 0.00 37 1024.5
20260831231604 72 187 1.7 4.3 0.00 0.00 0.00 37 1024.5
20260831230108 73 330 0.9 4.3 0.00 0.00 0.00 35 1024.6
20260831224604 73 23 0.0 5.2 0.00 0.00 0.00 34 1024.6
20260831223103 73 37 1.7 7.0 0.00 0.00 0.00 34 1024.6
20260831221607 73 44 1.7 7.8 0.00 0.00 0.00 34 1024.6
20260831220104 73 353 1.7 7.0 0.00 0.00 0.00 34 1024.6
20260831214618 74 20 1.7 5.2 0.00 0.00 0.00 33 1024.6
20260831213104 74 326 2.6 7.0 0.00 0.00 0.00 32 1024.6
20260831211605 74 20 1.7 5.2 0.00 0.00 0.00 31 1024.8